Tracking 27111 objects as of 29-Mar-2023
HD Live streaming from Space Station
objects crossing your sky now

KSF3-B

Track KSF3-B now!
10-day predictions


NORAD ID: 55019
Int'l Code: 2023-001L
Perigee: 522.2 km
Apogee: 535.5 km
Inclination: 97.5 °
Period: 95.1 minutes
Semi major axis: 6899 km
RCS: Unknown
Launch date: January 3, 2023
Source: Luxembourg (LUXE)
Launch site: AIR FORCE EASTERN TEST RANGE (AFETR)
Your satellite tracking list
Your tracking list is empty




NASA's NSSDC Master Catalog

Two Line Element Set (TLE):
1 55019U 23001L   23087.52743450  .00020003  00000-0  10793-2 0  9993
2 55019  97.4897 148.2821 0009621 299.5463 168.3650 15.14747428 12845
Source of the keplerian elements: AFSPC